Weather History for KOPL - March, 2014

Change the Weather History Date:

Sunday, March 16, 2014

  Actual Average (KLFT) Record (KLFT)
Temperature  
Mean Temperature 58 °F 62 °F  
Max Temperature 68 °F 72 °F 89 °F (1955)
Min Temperature 48 °F 52 °F 31 °F (1913)
Degree Days  
Heating Degree Days 7 5  
Month to date heating degree days 96  
Since 1 July heating degree days 1326  
Cooling Degree Days 0 2  
Month to date cooling degree days 26  
Year to date cooling degree days 58  
Growing Degree Days 8 (Base 50)    
Moisture  
Dew Point 58 °F    
Average Humidity 84    
Maximum Humidity 98    
Minimum Humidity 67    
Precipitation  
Precipitation 0.15 in 0.11 in 2.81 in (1998)
Month to date precipitation 2.08  
Year to date precipitation 12.20  
Snow  
Snow 0.00 in 0.00 in 0.00 in ()
Month to date snowfall 0.0  
Since 1 July snowfall T  
Snow Depth -    
Sea Level Pressure  
Sea Level Pressure 29.74 in    
Wind  
Wind Speed 10 mph (WNW)    
Max Wind Speed 18 mph    
Max Gust Speed 26 mph    
Visibility 9 miles    
Events Rain , Thunderstorm    
T = Trace of Precipitation, MM = Missing Value Source: NWS Daily Summary

Daily Weather History Graph

Daily Weather History Graph

Search for Another Location

Airport or City:

Trip Planner

Search our weather history database for the weather conditions in past years. The results will help you decide how hot, cold, wet, or windy it might be!

Date:

Astronomy

Mar. 16, 2014 Rise Set
Actual Time 7:17 AM CDT 7:17 PM CDT
Civil Twilight 6:53 AM CDT 7:41 PM CDT
Nautical Twilight 6:25 AM CDT 8:09 PM CDT
Astronomical Twilight 5:57 AM CDT 8:37 PM CDT
Moon 7:31 PM CDT (3/16) 7:02 AM CDT (3/16)
Length of Visible Light 12h 48m
Length of Day
12h 00m
Full, 100% of the Moon is Illuminated
Mar 16
Full
Mar 16
Full
Mar 23
Last Quarter
Mar 30
New
Apr 7
First Quarter

Hourly Weather History & Observations

Time (CDT) Temp. Dew Point Humidity Pressure Visibility Wind Dir Wind Speed Gust Speed Precip Events Conditions
12:15 AM 64.6 °F 63.7 °F 97% 29.74 in 10.0 mi SSE 10.4 mph 16.1 mph N/A Rain Light Rain
12:35 AM 65.3 °F 64.4 °F 97% 29.73 in 10.0 mi South 9.2 mph - 0.01 in   Overcast
12:55 AM 65.8 °F 65.3 °F 98% 29.73 in 10.0 mi South 10.4 mph - 0.01 in   Overcast
1:15 AM 66.4 °F 65.5 °F 97% 29.72 in 10.0 mi South 8.1 mph - N/A   Overcast
1:35 AM 66.9 °F 65.5 °F 95% 29.72 in 10.0 mi SW 10.4 mph - N/A   Overcast
1:55 AM 67.5 °F 65.8 °F 95% 29.72 in 10.0 mi SSW 12.7 mph 19.6 mph N/A Thunderstorm Overcast
2:15 AM 68.0 °F 66.2 °F 94% 29.72 in 10.0 mi SSW 15.0 mph 25.3 mph N/A   Overcast
2:35 AM 68.0 °F 66.2 °F 94% 29.72 in 10.0 mi SW 13.8 mph 20.7 mph N/A   Overcast
2:55 AM 68.0 °F 66.4 °F 95% 29.72 in 10.0 mi WSW 10.4 mph 17.3 mph N/A   Overcast
3:15 AM 68.0 °F 66.6 °F 95% 29.72 in 7.0 mi SW 13.8 mph 20.7 mph 0.01 in Rain Light Rain
3:35 AM 68.0 °F 66.7 °F 96% 29.71 in 7.0 mi SW 13.8 mph 18.4 mph 0.01 in   Overcast
3:55 AM 68.0 °F 66.7 °F 96% 29.71 in 7.0 mi SW 12.7 mph 19.6 mph 0.01 in   Overcast
4:15 AM 68.0 °F 66.7 °F 96% 29.71 in 7.0 mi SW 13.8 mph 21.9 mph N/A   Overcast
4:35 AM 67.5 °F 66.7 °F 98% 29.72 in 5.0 mi WSW 9.2 mph - 0.02 in Rain Heavy Rain
4:55 AM 67.5 °F 66.6 °F 97% 29.72 in 7.0 mi WSW 11.5 mph 19.6 mph 0.02 in   Overcast
5:15 AM 67.5 °F 66.4 °F 96% 29.72 in 7.0 mi West 11.5 mph - N/A   Overcast
5:35 AM 67.1 °F 66.0 °F 96% 29.72 in 7.0 mi WSW 8.1 mph - N/A   Overcast
5:55 AM 67.1 °F 65.8 °F 96% 29.71 in 7.0 mi WSW 9.2 mph - N/A   Overcast
6:15 AM 67.1 °F 65.7 °F 95% 29.72 in 7.0 mi WSW 10.4 mph - N/A   Overcast
6:35 AM 67.1 °F 65.7 °F 95% 29.71 in 7.0 mi SW 8.1 mph - N/A   Overcast
6:55 AM 67.1 °F 65.8 °F 96% 29.71 in 7.0 mi WSW 9.2 mph 17.3 mph N/A   Overcast
7:15 AM 67.1 °F 65.8 °F 96% 29.72 in 7.0 mi West 8.1 mph - N/A   Overcast
7:35 AM 67.1 °F 65.7 °F 95% 29.72 in 5.0 mi WSW 6.9 mph - N/A   Overcast
7:55 AM 67.3 °F 65.8 °F 95% 29.73 in 5.0 mi West 10.4 mph - N/A   Overcast
8:15 AM 67.1 °F 66.0 °F 96% 29.75 in 5.0 mi WNW 6.9 mph - N/A   Overcast
8:35 AM 67.3 °F 66.2 °F 96% 29.75 in 4.0 mi NW 6.9 mph - 0.01 in Rain Rain
8:55 AM 67.1 °F 65.7 °F 95% 29.75 in 5.0 mi NW 4.6 mph - 0.01 in Rain Light Rain
9:15 AM 66.6 °F 65.1 °F 95% 29.77 in 5.0 mi WNW 4.6 mph - 0.02 in Rain Light Rain
9:35 AM 66.0 °F 63.7 °F 92% 29.77 in 7.0 mi WNW 3.5 mph - 0.03 in Rain Light Rain
9:55 AM 64.9 °F 63.3 °F 94% 29.77 in 3.0 mi Calm Calm - 0.10 in Rain Light Rain
10:15 AM 63.9 °F 61.2 °F 91% 29.75 in 10.0 mi Calm Calm - N/A   Overcast
10:35 AM 64.8 °F 60.6 °F 86% 29.76 in 10.0 mi WSW 3.5 mph - N/A   Mostly Cloudy
10:55 AM 65.7 °F 61.0 °F 85% 29.76 in 10.0 mi West 5.8 mph - N/A   Scattered Clouds
11:15 AM 66.9 °F 62.2 °F 85% 29.76 in 10.0 mi WNW 10.4 mph - N/A   Scattered Clouds
11:35 AM 65.7 °F 57.6 °F 75% 29.76 in 10.0 mi West 6.9 mph 16.1 mph N/A   Clear
11:55 AM 65.8 °F 57.7 °F 75% 29.74 in 10.0 mi West 6.9 mph - N/A   Scattered Clouds
12:15 PM 64.8 °F 57.7 °F 78% 29.72 in 10.0 mi West 5.8 mph - N/A   Scattered Clouds
12:35 PM 64.6 °F 57.7 °F 78% 29.70 in 10.0 mi NW 6.9 mph - N/A   Mostly Cloudy
12:55 PM 63.9 °F 57.2 °F 79% 29.71 in 10.0 mi NW 11.5 mph 17.3 mph N/A   Mostly Cloudy
1:15 PM 64.4 °F 57.2 °F 77% 29.70 in 10.0 mi NW 11.5 mph 18.4 mph N/A   Overcast
1:55 PM 65.5 °F 56.5 °F 73% 29.67 in 10.0 mi NW 12.7 mph - N/A   Mostly Cloudy
2:15 PM 64.0 °F 57.0 °F 78% 29.66 in 10.0 mi NW 10.4 mph - N/A Rain Light Rain
2:35 PM 64.4 °F 57.2 °F 77% 29.67 in 10.0 mi NW 11.5 mph - N/A   Mostly Cloudy
2:55 PM 64.8 °F 56.8 °F 75% 29.67 in 10.0 mi NW 12.7 mph 19.6 mph N/A   Mostly Cloudy
3:15 PM 65.8 °F 57.0 °F 73% 29.65 in 10.0 mi NW 13.8 mph 21.9 mph N/A   Mostly Cloudy
3:35 PM 64.9 °F 56.7 °F 74% 29.65 in 10.0 mi NW 12.7 mph 19.6 mph N/A   Mostly Cloudy
3:55 PM 64.9 °F 55.6 °F 72% 29.66 in 10.0 mi NW 15.0 mph 21.9 mph N/A   Mostly Cloudy
4:15 PM 65.8 °F 54.9 °F 68% 29.66 in 10.0 mi NW 13.8 mph 19.6 mph N/A   Scattered Clouds
4:35 PM 66.4 °F 55.0 °F 67% 29.66 in 10.0 mi NW 11.5 mph 19.6 mph N/A   Scattered Clouds
4:55 PM 65.1 °F 54.0 °F 67% 29.67 in 10.0 mi NW 18.4 mph 24.2 mph N/A   Scattered Clouds
5:15 PM 63.9 °F 52.9 °F 67% 29.67 in 10.0 mi NNW 10.4 mph 19.6 mph N/A   Scattered Clouds
5:35 PM 63.7 °F 53.2 °F 69% 29.70 in 10.0 mi NW 9.2 mph 18.4 mph N/A   Mostly Cloudy
5:55 PM 63.5 °F 52.9 °F 68% 29.71 in 10.0 mi NNW 9.2 mph - N/A   Overcast
6:15 PM 63.3 °F 53.1 °F 69% 29.71 in 10.0 mi NW 5.8 mph - N/A   Overcast
6:35 PM 63.1 °F 52.5 °F 68% 29.72 in 10.0 mi NW 12.7 mph - N/A   Overcast
6:55 PM 59.4 °F 50.5 °F 73% 29.74 in 10.0 mi NNW 17.3 mph 26.5 mph N/A   Overcast
7:15 PM 58.3 °F 49.8 °F 73% 29.74 in 10.0 mi NNW 12.7 mph - N/A   Overcast
7:35 PM 57.0 °F 48.7 °F 74% 29.76 in 10.0 mi NNW 17.3 mph 23.0 mph N/A   Overcast
7:55 PM 56.1 °F 48.2 °F 75% 29.76 in 10.0 mi NNW 15.0 mph 23.0 mph N/A   Overcast
8:15 PM 54.9 °F 47.7 °F 77% 29.77 in 10.0 mi NNW 17.3 mph 25.3 mph N/A   Overcast
8:35 PM 53.6 °F 45.7 °F 75% 29.80 in 10.0 mi NNW 18.4 mph 26.5 mph N/A   Overcast
8:55 PM 52.9 °F 45.7 °F 77% 29.81 in 10.0 mi NNW 16.1 mph 21.9 mph N/A   Overcast
9:15 PM 52.2 °F 45.5 °F 78% 29.82 in 10.0 mi NNW 11.5 mph 21.9 mph N/A   Overcast
9:35 PM 51.4 °F 45.0 °F 79% 29.82 in 10.0 mi NNW 12.7 mph - N/A   Overcast
9:55 PM 51.1 °F 44.8 °F 79% 29.82 in 10.0 mi NNW 12.7 mph 17.3 mph N/A   Overcast
10:15 PM 50.5 °F 44.4 °F 80% 29.86 in 10.0 mi NNW 13.8 mph 20.7 mph N/A   Overcast
10:35 PM 49.8 °F 43.5 °F 79% 29.84 in 10.0 mi NNW 15.0 mph 24.2 mph N/A   Overcast
10:55 PM 49.5 °F 43.5 °F 80% 29.87 in 10.0 mi NW 11.5 mph 18.4 mph N/A   Overcast
11:15 PM 49.1 °F 42.4 °F 78% 29.87 in 10.0 mi NNW 12.7 mph 21.9 mph N/A   Overcast
11:35 PM 48.4 °F 42.3 °F 79% 29.88 in 10.0 mi NW 9.2 mph 23.0 mph N/A   Overcast
11:55 PM 48.2 °F 42.3 °F 80% 29.87 in 10.0 mi NNW 10.4 mph 16.1 mph N/A   Overcast